Springfield, CO

4:01 AM MDT on June 23, 2017 (GMT -0600)
Springfield

Weather History for KSPD - October, 2012

Change the Weather History Date:

Wednesday, October 31, 2012

  Actual Average Record
Temperature  
Mean Temperature 56 °F -  
Max Temperature 75 °F 64 °F 86 °F (2016)
Min Temperature 37 °F 33 °F 19 °F (2006)
Degree Days  
Heating Degree Days 9 17  
Month to date heating degree days 381 354  
Since 1 July heating degree days 447 445  
Cooling Degree Days 0 0  
Month to date cooling degree days 6 11  
Year to date cooling degree days 1422 1028  
Growing Degree Days 7 (Base 50)    
Moisture  
Dew Point 29 °F    
Average Humidity 43    
Maximum Humidity 70    
Minimum Humidity 16    
Precipitation  
Precipitation 0.00 in 0.05 in 1.34 in (1998)
Month to date precipitation 0.95  
Year to date precipitation 8.07  
Sea Level Pressure  
Sea Level Pressure 30.02 in    
Wind  
Wind Speed 5 mph (NW)    
Max Wind Speed 12 mph    
Max Gust Speed 15 mph    
T = Trace of Precipitation, MM = Missing Value Source: NWS Daily Summary

Daily Weather History Graph

Daily Weather History Graph

Search for Another Location

Airport or City:

Trip Planner

Search our weather history database for the weather conditions in past years. The results will help you decide how hot, cold, wet, or windy it might be!

Date:

Astronomy

Oct. 31, 2012 Rise Set
Actual Time 7:14 AM MDT 5:53 PM MDT
Civil Twilight 6:47 AM MDT 6:19 PM MDT
Nautical Twilight 6:16 AM MDT 6:50 PM MDT
Astronomical Twilight 5:46 AM MDT 7:21 PM MDT
Moon 7:08 PM MDT (10/31) 8:55 AM MDT (10/31)
Length of Visible Light 11h 32m
Length of Day
10h 38m
Full, 97% of the Moon is Illuminated
Oct 31
Full
Nov 6
Last Quarter
Nov 13
New
Nov 20
First Quarter
Nov 28
Full

Hourly Weather History & Observations

Time (MDT) Temp. Windchill Dew Point Humidity Pressure Visibility Wind Dir Wind Speed Gust Speed Precip Events Conditions
12:56 AM 44.1 °F 42.5 °F 30.9 °F 60% 30.01 in - West 3.5 mph - N/A   Unknown
1:56 AM 42.1 °F 40.2 °F 30.9 °F 65% 30.02 in - WNW 3.5 mph - N/A   Unknown
2:56 AM 39.9 °F 35.8 °F 30.9 °F 70% 30.03 in - WNW 5.8 mph - N/A   Unknown
3:56 AM 41.0 °F 39.0 °F 30.9 °F 67% 30.02 in - NNW 3.5 mph - N/A   Unknown
4:56 AM 44.1 °F 41.5 °F 32.0 °F 63% 30.02 in - WNW 4.6 mph - N/A   Unknown
5:56 AM 42.1 °F - 30.9 °F 65% 30.04 in - Calm Calm - N/A   Unknown
6:56 AM 39.9 °F 35.8 °F 30.9 °F 70% 30.07 in - NNW 5.8 mph - N/A   Unknown
7:56 AM 42.1 °F 39.2 °F 32.0 °F 67% 30.09 in - WNW 4.6 mph - N/A   Unknown
8:56 AM 57.0 °F - 36.0 °F 45% 30.05 in - Variable 4.6 mph - N/A   Unknown
9:56 AM 66.0 °F - 34.0 °F 30% 30.03 in - West 6.9 mph - N/A   Unknown
10:56 AM 70.0 °F - 30.9 °F 24% 30.04 in - WNW 6.9 mph - N/A   Unknown
11:56 AM 72.0 °F - 30.0 °F 21% 30.03 in - NW 6.9 mph - N/A   Unknown
12:56 PM 73.0 °F - 28.0 °F 19% 30.00 in - NNW 9.2 mph - N/A   Unknown
1:56 PM 73.9 °F - 27.0 °F 18% 29.98 in - Variable 4.6 mph - N/A   Unknown
2:56 PM 75.0 °F - 26.1 °F 16% 29.96 in - NE 3.5 mph - N/A   Unknown
3:56 PM 73.9 °F - 25.0 °F 16% 29.96 in - ENE 6.9 mph - N/A   Unknown
4:56 PM 72.0 °F - 25.0 °F 17% 29.96 in - East 3.5 mph - N/A   Unknown
5:56 PM 64.9 °F - 27.0 °F 24% 29.99 in - Calm Calm - N/A   Unknown
6:56 PM 55.0 °F - 28.0 °F 35% 30.05 in - North 3.5 mph - N/A   Unknown
7:56 PM 54.0 °F - 27.0 °F 35% 30.06 in - NNW 4.6 mph - N/A   Unknown
8:56 PM 45.0 °F 41.2 °F 28.0 °F 52% 30.04 in - NW 6.9 mph - N/A   Unknown
9:56 PM 42.1 °F - 28.0 °F 58% 30.03 in - Calm Calm - N/A   Unknown
10:56 PM 39.9 °F 33.9 °F 28.9 °F 65% 30.04 in - North 9.2 mph - N/A   Unknown
11:56 PM 46.0 °F 43.9 °F 27.0 °F 47% 30.02 in - WNW 4.6 mph - N/A   Unknown